Location: Janeiro
(34.9957°N, 76.7652°W)
Time: 13:47:51
(UTC+00:00)

CSL-04 Rocket - Pass Details

Date: 14 December 2019
Orbit: 807 x 859 km, 99.0° (Epoch: 27 January)

Event Time Altitude Azimuth Distance (km) Brightness Sun altitude
Rises 23:38:24 0° 161° (SSE) 3,307 6.8 -20.2°
Reaches altitude 10° 23:40:43 10° 160° (SSE) 2,379 6.0 -20.7°
Maximum altitude 23:45:57 77° 75° (ENE) 832 3.4 -21.7°
Drops below altitude 10° 23:51:15 10° 350° (N) 2,404 6.0 -22.8°
Sets 23:53:37 0° 349° (N) 3,345 6.8 -23.3°
